Reflectivity
-19 -20 -20 -20 -20 -20 -20 -20 -20 -20 -20 -20 -20 -20 -20 -20 -20 -20 -20 -20 -20 -20 -20 -20 -20 -20 -20 -20 -20 -20 -20 -20 -20 -20 -20 -20 -20 -20 -20 -20 -20 -20 -20 -20
-20 -20 -20 -20 -20 -20 -20 -20 -20 -20 -20 -20 -20 -20 -20 -20 -20 -20 -20 -20 -20 -20 -20 -20 -20 -20 -20 -20 -20 -20 -20 -20 -20 -20 -20 -20 -20 -20 -20 -20 -20 -20 -20 -20
-20 -20 -20 -7 -20 -20 -20 -20 -20 -20 -20 -20 -20 -20 -20 -20 -20 -20 -20 -20 -20 -20 -20 -20 -20 -20 -20 -20 -20 -20 -20 -20 -20 -20 -20 -20 -20 -20 -20 -20 -20 -20 -20 -20
-20 -20 -20 -20 -20 -20 -20 -20 -20 -20 -20 -20 -20 -20 -20 -20 -20 -20 -20 -20 -20 -20 -20 -20 -20 -20 -20 -20 -20 -20 -20 -20 -20 -20 -20 -20 -20 -20 -20 -20 -20 -20 -20 -20
-20 -20 -20 -20 -20 -20 -20 -20 -20 -20 -20 -20 -20 -20 -20 -20 -20 -20 -20 -20 -20 -20 -20 -9 -19 -20 -20 -20 -20 -20 -20 -20 -20 -20 -20 -20 -20 -20 -20 -20 -20 -20 -20 -20
-20 -20 -20 -20 -20 -20 -20 -20 -20 -20 -20 -20 -20 -20 -20 -20 -20 -20 -20 -20 -19 -9 -20 -20 -20 -20 -20 -20 -20 -20 -20 -20 -20 -20 -20 -20 -20 -20 -20 -20 -20 -20 -20 -20
-20 -20 -20 -20 -20 -20 -20 -20 -20 -20 -20 -20 -20 -20 -20 -20 -20 -20 -18 0 -7 -20 -20 -20 -20 -20 -20 -20 -20 -20 -20 -20 -20 -20 -20 -20 -20 -20 -20 -20 -20 -20 -20 -20
-20 -20 -20 -20 -20 -20 -20 -20 -20 -20 -20 -20 -20 -20 -20 -20 -20 -20 -17 -20 -20 -20 -20 -20 -20 -20 -20 -20 -20 -20 -20 -20 -20 -20 -20 -20 -20 -20 -20 -20 -20 -20 -20 -20
-20 -20 -20 -20 -20 -20 -20 -20 -20 -20 -20 -20 -20 -20 -20 -20 -20 -20 -20 -12 -4 -20 -20 -20 -20 -20 -20 -20 -20 -20 -20 -20 -20 -20 -20 -20 -20 -20 -20 -20 -20 -20 -20 -20
-20 -20 -20 -20 -20 -20 -20 -20 -20 -20 -20 -20 -20 -20 -20 -20 -20 -20 -17 -20 -20 -19 -19 -20 -20 -20 -20 -20 -20 -20 -20 -20 -20 -20 -20 -20 -20 -20 -20 -20 -20 -20 -20 -20
-20 -20 -20 -20 -20 -20 -20 -20 -20 -20 -20 -20 -20 -20 -20 -20 -20 -20 -20 -20 -20 -19 -20 -20 -20 -20 -20 -20 -20 -20 -20 -20 -20 -20 -20 -20 -20 -20 -20 -20 -20 -20 -20 -12
-20 -20 -20 -20 -20 -20 -20 -20 -20 -20 -20 -20 -20 -20 -20 -20 -20 -20 -20 -20 -20 -20 -20 -20 -20 -20 -20 -20 -20 -20 -20 -20 -20 -20 -20 -20 -20 -20 -20 -20 -20 -20 -20 -0
-20 -20 -20 -20 -20 -20 -20 -20 -20 -20 -20 -20 -20 -20 -20 -20 -20 -20 -20 -20 -20 -20 -20 -20 -20 -20 -20 -20 -20 -20 -20 -20 -20 -20 -20 -20 -20 -20 -20 -20 -20 -20 -20 -2
-20 -20 -20 -20 -20 -20 -20 -20 -20 -20 -20 -10 -20 -20 -20 -20 -20 -20 -20 -20 -20 -20 -20 -20 -20 -20 -20 -20 -20 -20 -20 -20 -20 -20 -20 -20 -20 -20 -20 -20 -16 -20 -20 0
-20 -20 -20 -20 -20 -20 -20 -4 -20 -20 -20 -20 -20 -20 -20 -20 -20 -20 -20 -20 -20 -20 -20 -20 -20 -20 -20 -20 -20 -20 -20 -20 -20 -20 -20 -20 -20 -20 -18 -20 -20 -20 -20 -20
-20 -20 -20 -20 -20 -20 -12 -20 -20 -20 -20 -20 -20 -20 -20 -20 -20 -20 -20 -20 -20 -20 -20 -20 -20 -20 -20 -20 -20 -20 -20 -20 -20 -20 -20 -20 -20 -6 -16 -20 -20 -20 -1 -20
-20 -20 -20 -20 -20 -20 -20 -20 -20 -20 -20 -20 -20 -20 -20 -20 -20 -20 -20 -20 -20 -20 -20 -20 -20 -20 -20 -20 -20 -20 -20 -20 -20 -20 -20 -14 -20 -20 -20 -6 7 7 3 -10
-20 -20 -20 -20 -20 -20 -20 -20 -20 -20 -20 -20 -20 -20 -20 -20 -20 -20 -20 -20 -20 -20 -20 -20 -20 -20 -20 -20 -20 -20 -20 -20 -20 -20 -20 -20 -20 -5 1 -4 -2 6 -2 -2
-20 -20 -20 -20 -20 -20 -20 -20 -20 -20 -20 -20 -20 -20 -20 -20 -20 -20 -20 -20 -20 -20 -20 -20 -20 -20 -20 -20 -20 -20 -20 -20 -20 -20 -20 5 -12 -20 5 3 -18 2 8 8
-20 -20 -20 -20 -20 -20 -20 -20 -20 -20 -20 -20 -20 -20 -20 -20 -20 -20 -20 -20 -20 -20 -20 -20 -20 -20 -20 -20 -20 -20 -20 -20 -1 5 -18 1 3 -17 -17 4 9 8 -10 -20
-20 -20 -20 -20 -20 -20 -20 -20 -20 -20 -20 -20 -20 -20 -20 -20 -20 -20 -20 -20 -20 -20 -20 -20 -20 -20 -20 -20 -20 -1 1 1 -2 2 1 -0 0 -2 9 7 -2 -20 -20 -8
-20 -20 -20 -20 -20 -20 -20 -20 -20 -20 -20 -20 -20 -20 -20 -20 -20 -20 -20 -20 -20 -20 -20 -20 -20 -20 -20 1 -6 -19 -20 -0 3 5 4 1 3 1 -13 -20 -20 -20 -20 -20
-20 -20 -20 -20 -20 -20 -20 -20 -20 -20 -20 -20 -20 -20 -20 -20 -20 -20 -20 -20 -20 -20 -20 -20 -20 -20 -12 -8 -20 -20 -14 -20 -20 -20 -20 -20 -20 -20 -20 -20 -20 -6 -20 -20
-20 -20 -20 -20 -20 -20 -20 -20 -20 -20 -20 -20 -20 -20 -20 -20 -20 -20 -20 -20 -20 -20 -20 -20 -20 -20 -9 -20 -20 -20 -20 -20 -20 -20 -20 -20 -20 -20 -20 -4 -20 -20 -20 -18
-20 -20 -20 -20 -20 -20 -20 -20 -20 -20 -20 -20 -20 -20 -20 -20 -20 -20 -20 -20 -20 -20 -20 -20 -20 -20 -20 -20 -20 -20 -20 -20 -20 -20 -15 -11 -7 -19 -19 -3 -3 -3 -16 -20
-20 -20 -20 -20 -20 -20 -20 -20 -20 -20 -20 -20 -20 -20 -20 -20 -20 -20 -20 -20 -20 -20 -20 -20 -20 -20 -20 -20 -20 -20 -20 -20 -20 -20 -1 -17 -12 -9 -12 -6 -9 -20 -20 -20
-20 -20 -20 -20 -20 -20 -20 -20 -20 -20 -20 -20 -20 -20 -20 -20 -20 -20 -20 -20 -20 -20 -20 -20 -20 -20 -20 -20 -20 -20 -20 -20 -20 -19 -19 -20 -9 -14 -14 -20 -20 -20 -20 -20
Wind_Speed
2 2 1 4 6 6 8 5 7 2 9 8 5 6 6 6 8 8 8 8 7 7 7 6 6 7 8 8 8 8 8 8 8 8 10 11 12 13 14 14 15 15 15 17
3 3 4 7 8 9 10 8 8 9 18 9 8 4 4 8 8 8 8 7 9 8 6 7 6 6 5 5 6 5 7 9 9 11 12 12 12 14 14 14 14 14 15 13
0 4 5 9 8 10 4 3 6 7 9 5 3 4 3 3 8 9 8 9 8 7 6 5 5 4 4 5 5 7 8 8 10 11 12 12 13 14 14 14 14 15 14 14
2 4 3 5 4 5 8 5 5 5 7 5 3 3 6 2 8 10 9 8 7 5 5 4 3 4 3 6 7 8 7 9 11 12 13 14 14 14 14 13 14 14 13 16
4 3 8 6 6 4 3 5 2 1 4 4 2 3 5 6 7 9 8 7 6 6 4 3 4 3 6 7 6 7 6 8 10 11 12 13 13 14 13 13 14 14 15 15
3 4 5 5 1 3 3 5 3 1 1 4 1 5 3 5 7 9 9 7 5 5 4 3 4 6 6 6 6 6 6 8 9 10 11 12 13 13 13 12 15 12 15 16
3 2 8 7 5 1 3 5 7 4 4 3 5 4 7 8 9 7 6 6 5 4 3 3 5 5 5 6 7 6 7 8 8 9 11 11 11 12 12 12 13 13 14 14
3 3 8 1 2 2 3 4 5 6 6 6 6 8 9 8 7 6 5 4 4 3 3 4 5 4 5 6 7 7 7 8 9 10 9 11 12 11 11 12 11 13 14 10
9 8 5 5 6 2 2 3 2 3 4 3 7 5 9 8 9 6 5 3 4 2 3 4 5 5 6 6 7 7 6 9 10 11 10 10 10 12 10 10 10 11 10 11
2 1 1 3 5 6 6 6 5 3 2 3 3 3 0 3 4 5 4 4 2 2 4 4 4 5 6 7 8 7 9 10 9 10 12 11 9 8 9 9 10 11 12 12
6 9 6 2 2 4 4 4 4 3 3 3 3 2 3 1 2 3 3 3 2 3 4 5 5 6 7 9 7 9 8 9 10 9 10 11 10 9 9 10 12 13 12 12
7 5 3 5 6 4 5 6 8 7 4 2 2 4 2 3 3 3 2 2 3 5 5 6 6 7 8 7 7 7 10 9 9 10 9 10 10 11 17 22 25 25 26 20
3 1 5 8 2 3 1 3 1 1 2 5 2 4 5 3 2 2 2 3 4 5 6 6 7 9 9 8 7 8 9 10 9 11 10 10 10 11 13 15 24 23 23 25
1 2 1 1 3 1 3 4 4 3 2 3 5 3 3 3 1 3 4 4 6 6 7 6 8 10 9 8 9 9 10 18 10 10 9 9 10 10 9 12 13 12 16 20
4 3 2 1 3 2 2 2 3 3 3 4 3 3 3 0 3 5 5 6 6 7 7 7 7 11 9 9 11 12 10 7 8 9 8 12 10 10 10 11 11 11 11 14
0 2 1 2 5 6 5 5 5 5 5 2 4 2 2 3 4 6 6 6 5 7 7 8 10 12 10 10 10 7 7 17 16 9 9 9 9 10 10 10 11 10 10 10
2 6 4 4 5 4 7 4 3 2 3 4 5 3 2 3 5 6 6 6 6 8 9 9 13 11 10 9 7 8 8 9 17 10 9 9 9 10 10 10 10 10 11 11
2 2 5 6 5 5 5 5 4 5 5 4 3 1 3 4 6 7 7 7 7 8 9 10 10 10 8 10 8 8 8 9 9 9 9 10 10 10 10 11 11 11 11 11
4 5 4 4 5 6 6 6 6 5 4 3 1 3 5 6 6 6 7 7 7 9 11 9 16 16 10 10 15 9 9 10 9 9 10 15 11 10 9 9 10 11 10 10
3 2 2 2 3 4 4 3 5 4 3 2 2 4 6 7 6 7 6 9 9 9 11 12 13 11 9 9 17 9 10 11 10 10 10 11 10 11 10 14 13 10 11 11
4 3 2 3 2 3 4 4 5 4 4 4 5 6 6 7 6 6 7 8 11 10 12 18 10 9 8 13 14 10 10 10 11 11 11 10 11 10 9 9 9 11 10 10
4 5 6 5 5 5 4 4 5 4 5 5 6 6 6 7 6 5 7 9 9 18 11 9 9 15 15 26 11 11 11 11 10 9 10 10 9 9 9 9 9 9 9 8
6 6 6 7 7 6 4 6 6 6 6 6 6 6 6 6 5 6 9 7 8 12 11 10 18 25 27 14 10 11 11 11 11 10 10 9 9 9 8 9 9 9 8 8
5 6 6 6 5 4 6 5 6 5 4 5 6 6 5 5 5 5 6 14 20 18 13 14 19 26 27 10 9 10 10 10 10 9 10 17 10 9 9 9 9 9 8 10
5 3 3 5 6 5 3 3 2 3 4 5 6 6 6 4 4 8 8 9 18 16 11 18 25 26 11 10 10 11 11 10 10 11 10 9 10 10 9 9 9 8 8 6
4 4 4 6 3 3 3 2 2 3 3 4 4 4 5 4 5 8 8 13 11 15 11 10 10 11 11 11 12 13 12 11 12 11 13 10 10 10 10 9 9 8 8 6
1 4 2 2 2 3 3 2 2 3 4 4 6 5 4 5 8 11 13 9 10 10 10 10 10 13 12 12 13 12 12 11 15 12 11 10 10 10 10 9 9 7 6 6
Wind_Direction
79 95 90 200 215 217 205 183 192 194 247 264 282 273 255 183 154 152 126 110 107 80 75 56 45 37 36 22 9 355 357 355 348 354 349 342 338 332 328 326 323 323 324 318
344 309 274 270 249 227 237 236 254 264 278 267 274 287 167 170 163 137 129 120 97 94 78 59 49 43 28 8 352 355 358 349 357 350 343 336 331 328 324 322 319 317 312 310
281 23 353 299 248 211 197 203 197 215 248 308 330 297 305 183 158 140 133 112 106 93 81 67 44 50 28 1 350 2 356 2 351 343 336 330 325 324 322 318 316 312 302 312
164 36 270 237 295 186 172 228 221 271 288 290 267 93 37 44 133 123 122 114 95 88 67 46 56 33 15 17 14 359 354 352 342 334 327 323 321 317 314 313 312 310 312 308
135 215 297 336 13 59 93 294 341 218 6 90 17 116 42 46 94 122 124 115 117 114 98 71 33 22 28 14 359 348 341 335 327 318 315 316 314 313 312 313 310 314 309 313
59 141 240 243 190 220 117 310 338 20 335 210 86 313 227 153 124 110 102 100 92 81 92 65 21 28 18 348 339 317 316 315 309 308 306 307 306 312 309 306 310 311 310 303
197 232 287 251 208 11 96 257 311 329 314 298 219 228 135 116 94 95 103 105 95 75 63 7 5 16 347 325 308 293 300 300 300 302 302 299 307 308 304 307 307 303 305 305
142 192 276 172 31 336 212 317 65 25 344 330 96 111 117 113 118 125 121 99 88 62 12 346 352 356 324 306 288 291 289 297 303 301 300 305 301 301 304 303 303 309 303 306
185 210 230 50 128 139 109 118 19 63 9 55 127 161 158 170 165 149 133 122 83 50 345 340 326 328 314 291 295 300 304 302 300 300 299 300 304 307 307 312 310 309 312 319
358 283 248 101 151 170 171 151 162 152 128 353 304 203 49 140 138 140 131 102 70 11 323 308 321 317 296 300 302 306 302 301 301 303 308 310 302 302 308 308 312 315 317 317
277 291 310 158 144 158 152 145 158 169 185 183 170 122 127 147 138 117 94 78 26 319 306 305 310 301 300 299 299 306 301 302 305 305 307 308 306 308 310 309 313 317 314 311
223 210 187 278 322 177 195 212 203 177 195 190 156 152 133 122 101 111 105 12 328 313 305 300 304 297 295 289 295 299 311 309 304 307 303 304 306 308 308 309 312 313 314 311
251 345 239 246 357 38 314 312 199 136 120 146 165 145 134 141 118 52 360 330 314 302 298 303 299 293 298 292 285 292 288 296 298 304 301 306 307 306 308 310 311 313 313 319
58 187 106 87 217 123 94 66 59 88 108 162 160 140 103 104 356 341 322 299 294 296 294 289 289 288 291 288 295 287 285 291 296 295 297 296 297 298 299 307 309 312 315 315
110 71 127 90 134 39 356 276 268 225 191 178 174 145 133 265 296 283 293 299 293 289 285 283 282 289 294 288 290 289 290 293 292 294 295 294 300 301 299 300 301 303 306 314
272 123 100 140 289 283 262 249 220 204 186 166 173 188 225 228 260 277 284 285 292 286 286 286 286 287 291 285 284 284 282 297 303 298 295 299 299 297 299 298 297 298 303 303
26 325 349 303 257 256 225 229 193 186 182 183 195 208 221 275 287 290 293 293 284 281 281 281 282 290 286 282 275 294 295 298 300 301 294 292 296 296 295 293 292 298 304 303
184 221 244 245 252 223 213 190 183 174 172 185 158 165 292 302 287 290 286 285 283 282 276 275 280 286 285 294 289 294 295 296 295 293 294 295 294 291 298 301 294 300 303 303
187 199 211 231 209 184 174 172 170 152 143 155 192 267 273 275 277 279 285 288 289 291 294 293 296 303 293 283 302 302 298 293 289 288 291 293 298 292 289 291 296 296 304 309
182 147 112 121 125 148 156 135 135 151 190 184 248 275 275 271 267 276 281 283 279 275 290 292 295 297 296 295 305 298 293 290 285 287 290 290 297 296 290 293 301 303 311 307
272 250 217 192 185 140 154 156 160 199 228 217 235 254 258 274 273 276 294 295 294 292 298 304 302 298 300 300 299 296 294 291 290 291 290 291 292 289 290 299 303 300 300 302
232 224 221 205 198 208 202 190 196 211 226 247 264 272 279 280 277 264 248 262 291 297 300 299 296 300 306 307 305 300 296 294 292 291 291 293 295 298 294 290 286 285 289 290
232 223 216 201 200 208 207 212 216 216 238 252 263 269 267 270 274 290 298 292 293 296 305 303 300 307 311 310 303 303 303 299 296 293 292 290 288 284 279 279 277 282 285 286
233 223 217 201 176 177 207 219 224 236 234 265 265 264 272 286 278 255 269 294 305 306 298 303 305 309 311 312 308 298 294 292 293 290 286 289 285 279 274 274 279 278 280 286
222 210 152 144 176 210 211 229 217 273 279 277 275 275 274 268 266 301 294 292 300 304 297 301 306 311 309 298 295 295 295 292 289 282 288 293 291 286 280 276 276 276 278 282
185 189 185 190 199 189 176 149 223 264 277 283 284 282 278 276 274 293 292 293 298 301 300 297 297 300 299 298 294 292 294 294 293 293 293 291 284 279 278 276 276 274 274 274
98 129 101 126 153 159 163 183 229 275 290 281 279 283 280 296 297 301 299 297 296 296 295 294 294 297 295 297 295 294 293 290 291 292 290 288 284 280 277 274 271 268 262 262